This demonstration page uses our WeatherBlox Daily Observations layout. Learn more.

Left ArrowRight Arrow

Hourly Observations for July 25, 2017

Temp ( °F °C ) Dew Point ( °F °C ) Humidity (%) Winds ( mph kmh ) Pressure ( in mb ) Visibility ( mi km ) Precip ( " mm )
12:53 am 00:53 Clear 75 23.9 54 12.2 48 48 VRB 3 6 29.84 1010 10 16 0.00 0.00
1:53 am 01:53 Clear 74 23.3 53 11.7 48 48 NE 3 6 29.84 1011 10 16 0.00 0.00
2:53 am 02:53 Clear 71 21.7 54 12.2 55 55 N 3 6 29.83 1010 10 16 0.00 0.00
3:53 am 03:53 Clear 69 20.6 53 11.7 57 57 Calm 29.83 1010 10 16 0.00 0.00
4:53 am 04:53 Clear 68 20 54 12.2 61 61 NNE 3 6 29.83 1010 10 16 0.00 0.00
5:53 am 05:53 Clear 68 20 54 12.2 61 61 NNW 3 6 29.85 1011 10 16 0.00 0.00
6:53 am 06:53 Sunny 69 20.6 55 12.8 61 61 Calm 29.86 1011 10 16 0.00 0.00
7:53 am 07:53 Sunny 75 23.9 54 12.2 48 48 Calm 29.87 1012 10 16 0.00 0.00
8:53 am 08:53 Sunny 79 26.1 55 12.8 44 44 Calm 29.87 1012 10 16 0.00 0.00
9:53 am 09:53 Sunny 84 28.9 55 12.8 37 37 SW 3 6 29.88 1012 10 16 0.00 0.00
10:53 am 10:53 Sunny 88 31.1 51 10.6 28 28 Calm 29.88 1012 10 16 0.00 0.00
11:53 am 11:53 Sunny 92 33.3 47 8.3 21 21 S 5 7 29.88 1012 10 16 0.00 0.00
1:53 pm 13:53 Sunny N/A N/A N/A S 6 9 N/A 10 16 0.00 0.00
2:53 pm 14:53 Sunny 102 38.9 36 2.2 10 10 SSE 7 11 29.80 1009 10 16 0.00 0.00
3:53 pm 15:53 Sunny 101 38.3 38 3.3 11 11 S 14 22 29.78 1009 10 16 0.00 0.00
4:53 pm 16:53 Sunny 102 38.9 36 2.2 10 10 S 10 17 29.78 1009 10 16 0.00 0.00
5:53 pm 17:53 Sunny 100 37.8 39 3.9 12 12 SSE 12 19 29.78 1009 10 16 0.00 0.00
6:53 pm 18:53 Sunny 97 36.1 46 7.8 17 17 S 14 22 29.79 1009 10 16 0.00 0.00
7:53 pm 19:53 Sunny 94 34.4 47 8.3 20 20 S 14 22 29.80 1009 10 16 0.00 0.00
8:53 pm 20:53 Clear 89 31.7 49 9.4 25 25 S 3 6 29.83 1010 10 16 0.00 0.00
9:53 pm 21:53 Clear 85 29.4 51 10.6 31 31 SSE 6 9 29.86 1011 10 16 0.00 0.00
10:53 pm 22:53 Clear 83 28.3 52 11.1 34 34 NE 3 6 29.88 1012 10 16 0.00 0.00
11:53 pm 23:53 Clear 80 26.7 53 11.7 39 39 Calm 29.90 1013 10 16 0.00 0.00

Powered by AerisWeather